Погода в Башурове

Россия / Еврейская автономная область     48°41′48″N   130°35′43″E
темп.,
°C
ветер,
м/с
пор.,
м/с
влажн.,
%
обл.,
%
осадки,
мм/ч
давл.,
гПа
погр.,
м
11 мая, вт
вт1101:00+5ю1196100 0.0 101428
04:00+5ю1195100 0.0 101514
07:00+6юв119397 0.0 101640
10:00+8ююв1281100 0.0 1017398
13:00+13ююв235968 0.0 10161280
16:00+12ююв3456100 0.1 10151245
19:00+12ююв456051 0.0 10151081
22:00+7юв311865 0.0 1015337
12 мая, ср
ср1201:00+6юв31288100 0.0 1014441
04:00+7юв41485100 0.0 1013550
07:00+7юв61681100 0.0 1010735
10:00+9юв71678100 0.5 1008854
13:00+12ююв71371100 0.8 10061269
16:00+13ююв81367100 0.8 10041142
19:00+13юв7127699 0.3 1002982
22:00+10юв61489100 3.2 1001578
13 мая, чт
чт1301:00+10ююв61490100 0.9 1002720
04:00+9ю3119177 1.0 1001443
07:00+9ююз4108399 0.1 1003775
10:00+10зюз497894 0.3 10041007
13:00+15з685692 1.1 10051723
16:00+15зсз485994 2.1 10051550
19:00+16с36535 0.1 1005758
22:00+9вюв11820 0.1 100810
14 мая, пт
пт1401:00+8ююв1186100 0.0 100912
04:00+7юв119040 0.0 100813
07:00+8ююв23805 0.0 100877
10:00+16ююв3645100 0.0 1006461
13:00+23ю592496 0.0 10042813
16:00+23ю7932100 0.0 10002815
19:00+16зсз4865100 0.3 1000354
22:00+9св2297100 11.6 1003146
15 мая, сб
сб1501:00+9ю129477 1.7 100261
04:00+6ю22920 1.7 100224
07:00+7ю25910 0.0 1002170
10:00+13зюз58573 0.0 10021391
13:00+12зсз41058100 0.0 10011705
16:00+12зсз5959100 0.2 10011541
19:00+10сз6137115 0.4 10021417
22:00+7зсз41181100 0.5 1004812